,,,PA_Meas_PMT16A,,PR_Meas_QMR101_102,,RH_Meas_QMH101,,SR_Meas_QMS101,,TA_Meas_QMH101,,GenWind,,GenWind,
date,time,status,PA,status,PR,status,RH,status,SR,status,TA,status,DirAvg,status,SpdAvg,
2011-06-02, 00:00:05,VALID,1005.49,VALID,0,INVALID,163.754,VALID,0.100563,VALID,24.0716,VALID,358,VALID,0.109766,
2011-06-02, 00:01:05,VALID,1005.49,VALID,0,INVALID,163.723,VALID,0.100563,VALID,24.0521,VALID,358,VALID,0.193359,
2011-06-02, 00:02:05,VALID,1005.5,VALID,0,INVALID,163.746,VALID,0.100563,VALID,24.0734,VALID,358,VALID,0,
2011-06-02, 00:03:05,VALID,1005.49,VALID,0,INVALID,163.708,VALID,0,VALID,24.0326,VALID,35,VALID,0.476953,
2011-06-02, 00:04:05,VALID,1005.47,VALID,0,INVALID,163.739,VALID,0,VALID,24.0326,VALID,44,VALID,0.246094,
2011-06-02, 00:05:05,VALID,1005.44,VALID,0,INVALID,163.739,VALID,0.100563,VALID,24.0326,VALID,44,VALID,0.332031,
2011-06-02, 00:06:05,VALID,1005.43,VALID,0,INVALID,163.746,VALID,0,VALID,24.0326,VALID,44,VALID,0.271094,
2011-06-02, 00:07:05,VALID,1005.43,VALID,0,INVALID,163.723,VALID,0,VALID,24.0132,VALID,44,VALID,0.477734,
2011-06-02, 00:08:05,VALID,1005.4,VALID,0,INVALID,163.723,VALID,0.100563,VALID,23.9937,VALID,44,VALID,0.391797,
2011-06-02, 00:09:05,VALID,1005.42,VALID,0,INVALID,163.746,VALID,0.100563,VALID,23.9548,VALID,44,VALID,0.417188,
2011-06-02, 00:10:05,VALID,1005.41,VALID,0,INVALID,163.739,VALID,0,VALID,23.914,VALID,44,VALID,0.458984,
2011-06-02, 00:11:05,VALID,1005.39,VALID,0,INVALID,163.754,VALID,0.100563,VALID,23.9159,VALID,44,VALID,0.391016,
2011-06-02, 00:12:05,VALID,1005.37,VALID,0,INVALID,163.739,VALID,0.100563,VALID,23.8964,VALID,44,VALID,0.333984,
2011-06-02, 00:13:05,VALID,1005.37,VALID,0,INVALID,163.754,VALID,0,VALID,23.8982,VALID,44,VALID,0.183203,
2011-06-02, 00:14:05,VALID,1005.36,VALID,0,INVALID,163.754,VALID,0,VALID,23.8575,VALID,44,VALID,0.408594,
2011-06-02, 00:15:05,VALID,1005.3,VALID,0,INVALID,163.754,VALID,0,VALID,23.8398,VALID,44,VALID,0.286328,
2011-06-02, 00:16:05,VALID,1005.3,VALID,0,INVALID,163.746,VALID,0,VALID,23.8203,VALID,44,VALID,0.360156,
2011-06-02, 00:17:05,VALID,1005.29,VALID,0,INVALID,163.777,VALID,0,VALID,23.7814,VALID,44,VALID,0.291797,
2011-06-02, 00:18:05,VALID,1005.25,VALID,0,INVALID,163.762,VALID,0,VALID,23.7814,VALID,44,VALID,0.45,
2011-06-02, 00:19:05,VALID,1005.28,VALID,0,INVALID,163.762,VALID,0,VALID,23.7425,VALID,44,VALID,0.398047,
2011-06-02, 00:20:05,VALID,1005.29,VALID,0,INVALID,163.746,VALID,0,VALID,23.7425,VALID,44,VALID,0.453125,
2011-06-02, 00:21:05,VALID,1005.26,VALID,0,INVALID,163.716,VALID,0,VALID,23.7017,VALID,44,VALID,0.556641,
2011-06-02, 00:22:05,VALID,1005.26,VALID,0,INVALID,163.754,VALID,0,VALID,23.7425,VALID,44,VALID,0.585938,
2011-06-02, 00:23:05,VALID,1005.26,VALID,0,INVALID,163.746,VALID,0,VALID,23.7035,VALID,44,VALID,0.443359,
2011-06-02, 00:24:05,VALID,1005.23,VALID,0,INVALID,163.762,VALID,0,VALID,23.7248,VALID,42,VALID,0.387891,
2011-06-02, 00:25:05,VALID,1005.22,VALID,0,INVALID,163.8,VALID,0,VALID,23.7035,VALID,42,VALID,0.391016,
2011-06-02, 00:26:05,VALID,1005.2,VALID,0,INVALID,163.746,VALID,0,VALID,23.723,VALID,42,VALID,0.421094,
2011-06-02, 00:27:05,VALID,1005.18,VALID,0,INVALID,163.754,VALID,0,VALID,23.7035,VALID,42,VALID,0.219531,
2011-06-02, 00:28:05,VALID,1005.18,VALID,0,INVALID,163.762,VALID,0,VALID,23.6628,VALID,42,VALID,0.146484,
2011-06-02, 00:29:05,VALID,1005.17,VALID,0,INVALID,163.784,VALID,0,VALID,23.7035,VALID,42,VALID,0.152734,
2011-06-02, 00:30:05,VALID,1005.16,VALID,0,INVALID,163.739,VALID,0,VALID,23.6823,VALID,42,VALID,0.105469,
2011-06-02, 00:31:05,VALID,1005.14,VALID,0,INVALID,163.762,VALID,0,VALID,23.6823,VALID,42,VALID,0,
2011-06-02, 00:32:05,VALID,1005.13,VALID,0,INVALID,163.716,VALID,0,VALID,23.7035,VALID,42,VALID,0.294922,
2011-06-02, 00:33:05,VALID,1005.11,VALID,0,INVALID,163.754,VALID,0,VALID,23.6823,VALID,42,VALID,0.355078,
2011-06-02, 00:34:05,VALID,1005.11,VALID,0,INVALID,163.754,VALID,0,VALID,23.6823,VALID,42,VALID,0.238281,
2011-06-02, 00:35:05,VALID,1005.09,VALID,0,INVALID,163.762,VALID,0,VALID,23.6823,VALID,42,VALID,0.248828,
2011-06-02, 00:36:05,VALID,1005.11,VALID,0,INVALID,163.754,VALID,0,VALID,23.6841,VALID,42,VALID,0.406641,
2011-06-02, 00:37:05,VALID,1005.08,VALID,0,INVALID,163.731,VALID,0.100563,VALID,23.7017,VALID,42,VALID,0.335156,
2011-06-02, 00:38:05,VALID,1005.1,VALID,0,INVALID,163.784,VALID,0,VALID,23.7017,VALID,42,VALID,0.494531,
2011-06-02, 00:39:05,VALID,1005.07,VALID,0,INVALID,163.762,VALID,0,VALID,23.7035,VALID,42,VALID,0.424609,
2011-06-02, 00:40:05,VALID,1005.05,VALID,0,INVALID,163.777,VALID,0,VALID,23.7017,VALID,42,VALID,0.392969,
2011-06-02, 00:41:05,VALID,1005.04,VALID,0,INVALID,163.762,VALID,0,VALID,23.7212,VALID,42,VALID,0.283203,
2011-06-02, 00:42:05,VALID,1005.03,VALID,0,INVALID,163.739,VALID,0,VALID,23.7212,VALID,42,VALID,0.463672,
2011-06-02, 00:43:05,VALID,1005.01,VALID,0,INVALID,163.746,VALID,0,VALID,23.7,VALID,42,VALID,0,
2011-06-02, 00:44:05,VALID,1004.98,VALID,0,INVALID,163.762,VALID,0,VALID,23.7425,VALID,42,VALID,0,
2011-06-02, 00:45:05,VALID,1004.98,VALID,0,INVALID,163.739,VALID,0,VALID,23.7425,VALID,42,VALID,0,
2011-06-02, 00:46:05,VALID,1004.97,VALID,0,INVALID,163.716,VALID,0,VALID,23.723,VALID,42,VALID,0,
2011-06-02, 00:47:05,VALID,1004.95,VALID,0,INVALID,163.754,VALID,0,VALID,23.723,VALID,42,VALID,0,
2011-06-02, 00:48:05,VALID,1004.91,VALID,0,INVALID,163.762,VALID,0,VALID,23.7035,VALID,42,VALID,0,
2011-06-02, 00:49:05,VALID,1004.9,VALID,0,INVALID,163.784,VALID,0,VALID,23.7035,VALID,42,VALID,0,
2011-06-02, 00:50:05,VALID,1004.89,VALID,0,INVALID,163.769,VALID,0,VALID,23.7035,VALID,42,VALID,0,
2011-06-02, 00:51:05,VALID,1004.85,VALID,0,INVALID,163.746,VALID,0,VALID,23.7035,VALID,42,VALID,0,
2011-06-02, 00:52:05,VALID,1004.85,VALID,0,INVALID,163.762,VALID,0,VALID,23.7035,VALID,42,VALID,0,
2011-06-02, 00:53:05,VALID,1004.84,VALID,0,INVALID,163.769,VALID,0,VALID,23.6823,VALID,42,VALID,0,
2011-06-02, 00:54:05,VALID,1004.8,VALID,0,INVALID,163.769,VALID,0,VALID,23.723,VALID,42,VALID,0,
2011-06-02, 00:55:05,VALID,1004.79,VALID,0,INVALID,163.784,VALID,0,VALID,23.7443,VALID,42,VALID,0,
2011-06-02, 00:56:05,VALID,1004.76,VALID,0,INVALID,163.762,VALID,0,VALID,23.7035,VALID,42,VALID,0,
2011-06-02, 00:57:05,VALID,1004.74,VALID,0,INVALID,163.762,VALID,0,VALID,23.7035,VALID,42,VALID,0,
2011-06-02, 00:58:05,VALID,1004.73,VALID,0,INVALID,163.769,VALID,0,VALID,23.7035,VALID,42,VALID,0,
2011-06-02, 00:59:05,VALID,1004.7,VALID,0,INVALID,163.762,VALID,0,VALID,23.6841,VALID,42,VALID,0,
2011-06-02, 01:00:05,VALID,1004.68,VALID,0,INVALID,163.769,VALID,0,VALID,23.6646,VALID,42,VALID,0,
2011-06-02, 01:01:05,VALID,1004.67,VALID,0,INVALID,163.769,VALID,0,VALID,23.6646,VALID,42,VALID,0,
2011-06-02, 01:02:05,VALID,1004.66,VALID,0,INVALID,163.746,VALID,0,VALID,23.6239,VALID,42,VALID,0,
2011-06-02, 01:03:05,VALID,1004.63,VALID,0,INVALID,163.769,VALID,0,VALID,23.6257,VALID,42,VALID,0,
2011-06-02, 01:04:05,VALID,1004.63,VALID,0,INVALID,163.754,VALID,0,VALID,23.6062,VALID,42,VALID,0,
2011-06-02, 01:05:05,VALID,1004.62,VALID,0,INVALID,163.762,VALID,0,VALID,23.6257,VALID,42,VALID,0,
2011-06-02, 01:06:05,VALID,1004.6,VALID,0,INVALID,163.769,VALID,0,VALID,23.6044,VALID,42,VALID,0,
2011-06-02, 01:07:05,VALID,1004.62,VALID,0,INVALID,163.777,VALID,0,VALID,23.5868,VALID,42,VALID,0,
2011-06-02, 01:08:05,VALID,1004.61,VALID,0,INVALID,163.784,VALID,0,VALID,23.6062,VALID,42,VALID,0,
2011-06-02, 01:09:05,VALID,1004.61,VALID,0,INVALID,163.762,VALID,0,VALID,23.5868,VALID,42,VALID,0,
2011-06-02, 01:10:05,VALID,1004.6,VALID,0,INVALID,163.762,VALID,0,VALID,23.5655,VALID,42,VALID,0,
2011-06-02, 01:11:05,VALID,1004.57,VALID,0,INVALID,163.769,VALID,0,VALID,23.5655,VALID,42,VALID,0,
2011-06-02, 01:12:05,VALID,1004.59,VALID,0,INVALID,163.769,VALID,0,VALID,23.6062,VALID,42,VALID,0,
2011-06-02, 01:13:05,VALID,1004.58,VALID,0,INVALID,163.769,VALID,0,VALID,23.585,VALID,42,VALID,0,
2011-06-02, 01:14:05,VALID,1004.57,VALID,0,INVALID,163.746,VALID,0,VALID,23.6044,VALID,42,VALID,0,
2011-06-02, 01:15:05,VALID,1004.56,VALID,0,INVALID,163.784,VALID,0,VALID,23.6044,VALID,42,VALID,0,
2011-06-02, 01:16:05,VALID,1004.56,VALID,0,INVALID,163.777,VALID,0,VALID,23.585,VALID,42,VALID,0,
2011-06-02, 01:17:05,VALID,1004.57,VALID,0,INVALID,163.769,VALID,0.100563,VALID,23.585,VALID,43,VALID,0,
2011-06-02, 01:18:05,VALID,1004.55,VALID,0,INVALID,163.754,VALID,0,VALID,23.585,VALID,43,VALID,0,
2011-06-02, 01:19:05,VALID,1004.56,VALID,0,INVALID,163.746,VALID,0,VALID,23.6062,VALID,43,VALID,0,
2011-06-02, 01:20:05,VALID,1004.55,VALID,0,INVALID,163.754,VALID,0,VALID,23.6044,VALID,43,VALID,0,
2011-06-02, 01:21:05,VALID,1004.57,VALID,0,INVALID,163.777,VALID,0,VALID,23.6026,VALID,43,VALID,0,
2011-06-02, 01:22:05,VALID,1004.56,VALID,0,INVALID,163.777,VALID,0.100563,VALID,23.6026,VALID,43,VALID,0,
2011-06-02, 01:23:05,VALID,1004.57,VALID,0,INVALID,163.762,VALID,0.100563,VALID,23.6221,VALID,43,VALID,0,
2011-06-02, 01:24:05,VALID,1004.58,VALID,0,INVALID,163.762,VALID,0,VALID,23.6239,VALID,43,VALID,0,
2011-06-02, 01:25:05,VALID,1004.56,VALID,0,INVALID,163.807,VALID,0,VALID,23.6239,VALID,43,VALID,0,
2011-06-02, 01:26:05,VALID,1004.57,VALID,0,INVALID,163.762,VALID,0.100563,VALID,23.6239,VALID,43,VALID,0,
2011-06-02, 01:27:05,VALID,1004.55,VALID,0,INVALID,163.784,VALID,0,VALID,23.6221,VALID,43,VALID,0,
2011-06-02, 01:28:05,VALID,1004.55,VALID,0,INVALID,163.769,VALID,0,VALID,23.6628,VALID,49,VALID,0,
2011-06-02, 01:29:05,VALID,1004.55,VALID,0,INVALID,163.762,VALID,0,VALID,23.6841,VALID,66,VALID,0,
2011-06-02, 01:30:05,VALID,1004.57,VALID,0,INVALID,163.762,VALID,0,VALID,23.7035,VALID,86,VALID,0,
2011-06-02, 01:31:05,VALID,1004.57,VALID,0,INVALID,163.746,VALID,0,VALID,23.7425,VALID,86,VALID,0,
2011-06-02, 01:32:05,VALID,1004.54,VALID,0,INVALID,163.754,VALID,0,VALID,23.7619,VALID,86,VALID,0,
2011-06-02, 01:33:05,VALID,1004.55,VALID,0,INVALID,163.731,VALID,0,VALID,23.7407,VALID,86,VALID,0,
2011-06-02, 01:34:05,VALID,1004.56,VALID,0,INVALID,163.754,VALID,0,VALID,23.7619,VALID,86,VALID,0,
2011-06-02, 01:35:05,VALID,1004.57,VALID,0,INVALID,163.746,VALID,0,VALID,23.8221,VALID,86,VALID,0,
2011-06-02, 01:36:05,VALID,1004.58,VALID,0,INVALID,163.716,VALID,0,VALID,23.8203,VALID,86,VALID,0,
2011-06-02, 01:37:05,VALID,1004.56,VALID,0,INVALID,163.723,VALID,0,VALID,23.8203,VALID,86,VALID,0,
2011-06-02, 01:38:05,VALID,1004.58,VALID,0,INVALID,163.739,VALID,0,VALID,23.8398,VALID,46,VALID,0,
2011-06-02, 01:39:05,VALID,1004.56,VALID,0,INVALID,163.723,VALID,0,VALID,23.8575,VALID,30,VALID,0.342969,
2011-06-02, 01:40:05,VALID,1004.56,VALID,0,INVALID,163.807,VALID,0,VALID,23.8982,VALID,19,VALID,0.641797,
2011-06-02, 01:41:05,VALID,1004.54,VALID,0,INVALID,163.769,VALID,0,VALID,23.9177,VALID,19,VALID,0.561328,
2011-06-02, 01:42:05,VALID,1004.52,VALID,0,INVALID,163.731,VALID,0,VALID,23.9566,VALID,19,VALID,0.365625,
2011-06-02, 01:43:05,VALID,1004.54,VALID,0,INVALID,163.754,VALID,0,VALID,23.9761,VALID,19,VALID,0.376172,
2011-06-02, 01:44:04,VALID,1004.55,VALID,0,INVALID,163.739,VALID,0,VALID,23.9955,VALID,19,VALID,0.311328,
2011-06-02, 01:45:04,VALID,1004.53,VALID,0,INVALID,163.708,VALID,0,VALID,23.9955,VALID,19,VALID,0.277734,
2011-06-02, 01:46:04,VALID,1004.56,VALID,0,INVALID,163.723,VALID,0,VALID,23.9955,VALID,24,VALID,0.296094,
2011-06-02, 01:47:04,VALID,1004.58,VALID,0,INVALID,163.716,VALID,0,VALID,23.9955,VALID,136,VALID,0.585547,
2011-06-02, 01:48:04,VALID,1004.57,VALID,0,INVALID,163.716,VALID,0,VALID,24.0345,VALID,137,VALID,0,
2011-06-02, 01:49:04,VALID,1004.55,VALID,0,INVALID,163.731,VALID,0,VALID,24.0168,VALID,137,VALID,0.084375,
2011-06-02, 01:50:04,VALID,1004.58,VALID,0,INVALID,163.762,VALID,0,VALID,24.015,VALID,137,VALID,0.468359,
2011-06-02, 01:51:04,VALID,1004.58,VALID,0,INVALID,163.754,VALID,0,VALID,24.0345,VALID,137,VALID,0.437109,
2011-06-02, 01:52:04,VALID,1004.59,VALID,0,INVALID,163.754,VALID,0,VALID,24.0363,VALID,110,VALID,0.440625,
2011-06-02, 01:53:04,VALID,1004.54,VALID,0,INVALID,163.723,VALID,0,VALID,23.9955,VALID,107,VALID,0.230859,
2011-06-02, 01:54:04,VALID,1004.57,VALID,0,INVALID,163.739,VALID,0,VALID,24.0168,VALID,107,VALID,0.228906,
2011-06-02, 01:55:04,VALID,1004.56,VALID,0,INVALID,163.723,VALID,0,VALID,23.9955,VALID,107,VALID,0.40625,
2011-06-02, 01:56:04,VALID,1004.53,VALID,0,INVALID,163.739,VALID,0,VALID,23.9955,VALID,107,VALID,0.357422,
2011-06-02, 01:57:04,VALID,1004.53,VALID,0,INVALID,163.739,VALID,0,VALID,23.9761,VALID,107,VALID,0.345703,
2011-06-02, 01:58:04,VALID,1004.5,VALID,0,INVALID,163.746,VALID,0,VALID,23.9566,VALID,107,VALID,0.335156,
2011-06-02, 01:59:04,VALID,1004.49,VALID,0,INVALID,163.723,VALID,0,VALID,23.9177,VALID,107,VALID,0.305859,
2011-06-02, 02:00:04,VALID,1004.51,VALID,0,INVALID,163.754,VALID,0,VALID,23.9389,VALID,107,VALID,0.0914062,
2011-06-02, 02:01:04,VALID,1004.48,VALID,0,INVALID,163.762,VALID,0,VALID,23.9195,VALID,107,VALID,0.0121094,
2011-06-02, 02:02:04,VALID,1004.52,VALID,0,INVALID,163.731,VALID,0,VALID,23.8787,VALID,107,VALID,0.267188,
2011-06-02, 02:03:04,VALID,1004.51,VALID,0,INVALID,163.723,VALID,0,VALID,23.8593,VALID,107,VALID,0.1,
2011-06-02, 02:04:04,VALID,1004.52,VALID,0,INVALID,163.723,VALID,0,VALID,23.8593,VALID,107,VALID,0.162109,
2011-06-02, 02:05:04,VALID,1004.5,VALID,0,INVALID,163.739,VALID,0,VALID,23.8611,VALID,107,VALID,0.162891,
2011-06-02, 02:06:04,VALID,1004.51,VALID,0,INVALID,163.762,VALID,0,VALID,23.8398,VALID,107,VALID,0,
2011-06-02, 02:07:04,VALID,1004.52,VALID,0,INVALID,163.731,VALID,0,VALID,23.8398,VALID,107,VALID,0.203906,
2011-06-02, 02:08:04,VALID,1004.52,VALID,0,INVALID,163.762,VALID,0,VALID,23.8203,VALID,107,VALID,0.287109,
2011-06-02, 02:09:04,VALID,1004.54,VALID,0,INVALID,163.746,VALID,0,VALID,23.8203,VALID,107,VALID,0,
2011-06-02, 02:10:04,VALID,1004.53,VALID,0,INVALID,163.739,VALID,0,VALID,23.8203,VALID,107,VALID,0.0574219,
2011-06-02, 02:11:04,VALID,1004.53,VALID,0,INVALID,163.769,VALID,0,VALID,23.8611,VALID,107,VALID,0,
2011-06-02, 02:12:04,VALID,1004.52,VALID,0,INVALID,163.731,VALID,0,VALID,23.8203,VALID,107,VALID,0,
2011-06-02, 02:13:04,VALID,1004.52,VALID,0,INVALID,163.762,VALID,0,VALID,23.8203,VALID,107,VALID,0,
2011-06-02, 02:14:04,VALID,1004.5,VALID,0,INVALID,163.739,VALID,0,VALID,23.8203,VALID,107,VALID,0,
2011-06-02, 02:15:04,VALID,1004.53,VALID,0,INVALID,163.746,VALID,0.100563,VALID,23.8185,VALID,107,VALID,0,
2011-06-02, 02:16:04,VALID,1004.52,VALID,0,INVALID,163.708,VALID,0.100563,VALID,23.8185,VALID,107,VALID,0,
2011-06-02, 02:17:04,VALID,1004.52,VALID,0,INVALID,163.746,VALID,0,VALID,23.8593,VALID,107,VALID,0,
2011-06-02, 02:18:04,VALID,1004.57,VALID,0,INVALID,163.739,VALID,0,VALID,23.8575,VALID,107,VALID,0,
2011-06-02, 02:19:04,VALID,1004.62,VALID,0,INVALID,163.731,VALID,0.100563,VALID,23.8398,VALID,107,VALID,0,
2011-06-02, 02:20:04,VALID,1004.63,VALID,0,INVALID,163.769,VALID,0,VALID,23.8398,VALID,107,VALID,0,
2011-06-02, 02:21:04,VALID,1004.63,VALID,0,INVALID,163.716,VALID,0.100563,VALID,23.838,VALID,107,VALID,0,
2011-06-02, 02:22:04,VALID,1004.65,VALID,0,INVALID,163.754,VALID,0,VALID,23.8167,VALID,107,VALID,0,
2011-06-02, 02:23:04,VALID,1004.66,VALID,0,INVALID,163.731,VALID,0,VALID,23.838,VALID,106,VALID,0,
2011-06-02, 02:24:04,VALID,1004.66,VALID,0,INVALID,163.746,VALID,0,VALID,23.8787,VALID,106,VALID,0,
2011-06-02, 02:25:04,VALID,1004.65,VALID,0,INVALID,163.746,VALID,0,VALID,23.8787,VALID,106,VALID,0,
2011-06-02, 02:26:04,VALID,1004.67,VALID,0,INVALID,163.8,VALID,0,VALID,23.838,VALID,106,VALID,0,
2011-06-02, 02:27:04,VALID,1004.71,VALID,0,INVALID,163.723,VALID,0,VALID,23.8575,VALID,88,VALID,0.252344,
2011-06-02, 02:28:04,VALID,1004.69,VALID,0,INVALID,163.746,VALID,0,VALID,23.8575,VALID,88,VALID,0.240234,
2011-06-02, 02:29:04,VALID,1004.66,VALID,0,INVALID,163.739,VALID,0,VALID,23.8787,VALID,88,VALID,0.0632813,
2011-06-02, 02:30:04,VALID,1004.67,VALID,0,INVALID,163.746,VALID,0,VALID,23.8575,VALID,88,VALID,0.227344,
2011-06-02, 02:31:04,VALID,1004.69,VALID,0,INVALID,163.708,VALID,0,VALID,23.8787,VALID,88,VALID,0.191016,
2011-06-02, 02:32:04,VALID,1004.68,VALID,0,INVALID,163.716,VALID,0,VALID,23.8575,VALID,88,VALID,0.166016,
2011-06-02, 02:33:04,VALID,1004.7,VALID,0,INVALID,163.746,VALID,0,VALID,23.8575,VALID,88,VALID,0.134375,
2011-06-02, 02:34:04,VALID,1004.68,VALID,0,INVALID,163.739,VALID,0,VALID,23.8593,VALID,88,VALID,0.270312,
2011-06-02, 02:35:04,VALID,1004.68,VALID,0,INVALID,163.739,VALID,0,VALID,23.8185,VALID,88,VALID,0.170312,
2011-06-02, 02:36:04,VALID,1004.68,VALID,0,INVALID,163.762,VALID,0,VALID,23.838,VALID,88,VALID,0.178516,
2011-06-02, 02:37:04,VALID,1004.69,VALID,0,INVALID,163.777,VALID,0,VALID,23.838,VALID,88,VALID,0.221094,
2011-06-02, 02:38:04,VALID,1004.67,VALID,0,INVALID,163.731,VALID,0,VALID,23.8398,VALID,88,VALID,0.0945313,
2011-06-02, 02:39:04,VALID,1004.67,VALID,0,INVALID,163.784,VALID,0,VALID,23.7991,VALID,88,VALID,0.0105469,
2011-06-02, 02:40:04,VALID,1004.64,VALID,0,INVALID,163.739,VALID,0.100563,VALID,23.7796,VALID,88,VALID,0,
2011-06-02, 02:41:04,VALID,1004.63,VALID,0,INVALID,163.723,VALID,0.100563,VALID,23.7991,VALID,88,VALID,0,
2011-06-02, 02:42:04,VALID,1004.65,VALID,0,INVALID,163.746,VALID,0,VALID,23.7796,VALID,88,VALID,0,
2011-06-02, 02:43:04,VALID,1004.62,VALID,0,INVALID,163.762,VALID,0,VALID,23.7991,VALID,88,VALID,0,
2011-06-02, 02:44:04,VALID,1004.64,VALID,0,INVALID,163.739,VALID,0,VALID,23.7601,VALID,88,VALID,0,
2011-06-02, 02:45:04,VALID,1004.63,VALID,0,INVALID,163.754,VALID,0,VALID,23.7407,VALID,88,VALID,0,
2011-06-02, 02:46:04,VALID,1004.64,VALID,0,INVALID,163.754,VALID,0,VALID,23.7407,VALID,88,VALID,0,
2011-06-02, 02:47:04,VALID,1004.64,VALID,0,INVALID,163.754,VALID,0,VALID,23.7601,VALID,88,VALID,0,
2011-06-02, 02:48:04,VALID,1004.63,VALID,0,INVALID,163.754,VALID,0.100563,VALID,23.7407,VALID,88,VALID,0,
2011-06-02, 02:49:04,VALID,1004.65,VALID,0,INVALID,163.762,VALID,0,VALID,23.7407,VALID,88,VALID,0,
2011-06-02, 02:50:04,VALID,1004.65,VALID,0,INVALID,163.746,VALID,0.100563,VALID,23.7407,VALID,88,VALID,0,
2011-06-02, 02:51:04,VALID,1004.64,VALID,0,INVALID,163.739,VALID,0.100563,VALID,23.7407,VALID,88,VALID,0,
2011-06-02, 02:52:04,VALID,1004.64,VALID,0,INVALID,163.746,VALID,0.100563,VALID,23.7407,VALID,88,VALID,0,
2011-06-02, 02:53:04,VALID,1004.62,VALID,0,INVALID,163.739,VALID,0.100563,VALID,23.7212,VALID,88,VALID,0,
2011-06-02, 02:54:04,VALID,1004.61,VALID,0,INVALID,163.731,VALID,0.100563,VALID,23.7212,VALID,88,VALID,0,
2011-06-02, 02:55:04,VALID,1004.62,VALID,0,INVALID,163.762,VALID,0.100563,VALID,23.7,VALID,88,VALID,0,
2011-06-02, 02:56:04,VALID,1004.62,VALID,0,INVALID,163.769,VALID,0.100563,VALID,23.7212,VALID,88,VALID,0,
2011-06-02, 02:57:04,VALID,1004.63,VALID,0,INVALID,163.754,VALID,0.100563,VALID,23.661,VALID,79,VALID,0,
2011-06-02, 02:58:04,VALID,1004.65,VALID,0,INVALID,163.754,VALID,0.100563,VALID,23.6628,VALID,54,VALID,0,
2011-06-02, 02:59:04,VALID,1004.69,VALID,0,INVALID,163.739,VALID,0,VALID,23.6434,VALID,26,VALID,0.127734,
2011-06-02, 03:00:04,VALID,1004.67,VALID,0,INVALID,163.769,VALID,0,VALID,23.6646,VALID,22,VALID,0.422266,
2011-06-02, 03:01:04,VALID,1004.7,VALID,0,INVALID,163.777,VALID,0,VALID,23.6841,VALID,22,VALID,0.259375,
2011-06-02, 03:02:04,VALID,1004.7,VALID,0,INVALID,163.762,VALID,0,VALID,23.6841,VALID,22,VALID,0.523438,
2011-06-02, 03:03:04,VALID,1004.7,VALID,0,INVALID,163.739,VALID,0,VALID,23.6646,VALID,22,VALID,0.391406,
2011-06-02, 03:04:04,VALID,1004.71,VALID,0,INVALID,163.746,VALID,0,VALID,23.6646,VALID,22,VALID,0.369531,
2011-06-02, 03:05:04,VALID,1004.69,VALID,0,INVALID,163.777,VALID,0,VALID,23.6452,VALID,22,VALID,0.396094,
2011-06-02, 03:06:04,VALID,1004.71,VALID,0,INVALID,163.762,VALID,0,VALID,23.6646,VALID,22,VALID,0.365625,
2011-06-02, 03:07:04,VALID,1004.71,VALID,0,INVALID,163.762,VALID,0,VALID,23.6452,VALID,22,VALID,0.266016,
2011-06-02, 03:08:04,VALID,1004.7,VALID,0,INVALID,163.769,VALID,0,VALID,23.6646,VALID,22,VALID,0.0121094,
2011-06-02, 03:09:04,VALID,1004.71,VALID,0,INVALID,163.754,VALID,0,VALID,23.6646,VALID,22,VALID,0,
2011-06-02, 03:10:04,VALID,1004.7,VALID,0,INVALID,163.762,VALID,0,VALID,23.6452,VALID,22,VALID,0.105078,
2011-06-02, 03:11:04,VALID,1004.7,VALID,0,INVALID,163.762,VALID,0,VALID,23.6452,VALID,22,VALID,0.285937,
2011-06-02, 03:12:04,VALID,1004.75,VALID,0,INVALID,163.769,VALID,0,VALID,23.6859,VALID,22,VALID,0.454297,
2011-06-02, 03:13:04,VALID,1004.7,VALID,0,INVALID,163.716,VALID,0,VALID,23.6646,VALID,22,VALID,0.455859,
2011-06-02, 03:14:04,VALID,1004.72,VALID,0,INVALID,163.769,VALID,0,VALID,23.6646,VALID,16,VALID,0.596484,
2011-06-02, 03:15:04,VALID,1004.72,VALID,0,INVALID,163.762,VALID,0,VALID,23.6646,VALID,16,VALID,0.323047,
2011-06-02, 03:16:04,VALID,1004.73,VALID,0,INVALID,163.746,VALID,0,VALID,23.6452,VALID,16,VALID,0.360156,
2011-06-02, 03:17:04,VALID,1004.72,VALID,0,INVALID,163.769,VALID,0,VALID,23.6452,VALID,16,VALID,0.264062,
2011-06-02, 03:18:04,VALID,1004.72,VALID,0,INVALID,163.762,VALID,0,VALID,23.6257,VALID,16,VALID,0.282031,
2011-06-02, 03:19:04,VALID,1004.72,VALID,0,INVALID,163.762,VALID,0,VALID,23.6646,VALID,16,VALID,0.314844,
2011-06-02, 03:20:04,VALID,1004.72,VALID,0,INVALID,163.746,VALID,0,VALID,23.6434,VALID,16,VALID,0.260156,
2011-06-02, 03:21:04,VALID,1004.72,VALID,0,INVALID,163.769,VALID,0,VALID,23.6452,VALID,16,VALID,0.240625,
2011-06-02, 03:22:04,VALID,1004.7,VALID,0,INVALID,163.762,VALID,0,VALID,23.6452,VALID,16,VALID,0.371875,
2011-06-02, 03:23:04,VALID,1004.7,VALID,0,INVALID,163.754,VALID,0,VALID,23.6646,VALID,16,VALID,0.476953,
2011-06-02, 03:24:04,VALID,1004.65,VALID,0,INVALID,163.746,VALID,0,VALID,23.6452,VALID,16,VALID,0.440625,
2011-06-02, 03:25:04,VALID,1004.62,VALID,0,INVALID,163.754,VALID,0,VALID,23.6452,VALID,15,VALID,0.391406,
2011-06-02, 03:26:04,VALID,1004.63,VALID,0,INVALID,163.784,VALID,0,VALID,23.6646,VALID,15,VALID,0.435547,
2011-06-02, 03:27:04,VALID,1004.61,VALID,0,INVALID,163.762,VALID,0,VALID,23.6452,VALID,15,VALID,0.507813,
2011-06-02, 03:28:04,VALID,1004.59,VALID,0,INVALID,163.762,VALID,0,VALID,23.6434,VALID,15,VALID,0.314063,
2011-06-02, 03:29:04,VALID,1004.59,VALID,0,INVALID,163.754,VALID,0,VALID,23.6646,VALID,15,VALID,0.239844,
2011-06-02, 03:30:04,VALID,1004.57,VALID,0,INVALID,163.754,VALID,0,VALID,23.6646,VALID,15,VALID,0.496094,
2011-06-02, 03:31:04,VALID,1004.56,VALID,0,INVALID,163.762,VALID,0,VALID,23.7053,VALID,15,VALID,0.551953,
2011-06-02, 03:32:04,VALID,1004.55,VALID,0,INVALID,163.777,VALID,0,VALID,23.7053,VALID,15,VALID,0.464063,
2011-06-02, 03:33:04,VALID,1004.58,VALID,0,INVALID,163.762,VALID,0,VALID,23.6841,VALID,15,VALID,0.297656,
2011-06-02, 03:34:04,VALID,1004.57,VALID,0,INVALID,163.762,VALID,0,VALID,23.6841,VALID,15,VALID,0.00273437,
2011-06-02, 03:35:04,VALID,1004.55,VALID,0,INVALID,163.769,VALID,0,VALID,23.7035,VALID,15,VALID,0.2375,
2011-06-02, 03:36:04,VALID,1004.56,VALID,0,INVALID,163.739,VALID,0,VALID,23.7035,VALID,15,VALID,0.126563,
2011-06-02, 03:37:04,VALID,1004.55,VALID,0,INVALID,163.754,VALID,0,VALID,23.7425,VALID,15,VALID,0.370703,
2011-06-02, 03:38:04,VALID,1004.53,VALID,0,INVALID,163.762,VALID,0,VALID,23.7619,VALID,15,VALID,0.339453,
2011-06-02, 03:39:04,VALID,1004.54,VALID,0,INVALID,163.792,VALID,0,VALID,23.7814,VALID,15,VALID,0.396484,
2011-06-02, 03:40:04,VALID,1004.53,VALID,0,INVALID,163.739,VALID,0,VALID,23.7814,VALID,15,VALID,0.33125,
2011-06-02, 03:41:04,VALID,1004.52,VALID,0,INVALID,163.746,VALID,0,VALID,23.8009,VALID,15,VALID,0.00117188,
2011-06-02, 03:42:04,VALID,1004.56,VALID,0,INVALID,163.739,VALID,0,VALID,23.8203,VALID,25,VALID,0.303125,
2011-06-02, 03:43:04,VALID,1004.55,VALID,0,INVALID,163.754,VALID,0,VALID,23.8416,VALID,25,VALID,0.000390625,
2011-06-02, 03:44:04,VALID,1004.54,VALID,0,INVALID,163.754,VALID,0,VALID,23.8398,VALID,25,VALID,0.241016,
2011-06-02, 03:45:04,VALID,1004.56,VALID,0,INVALID,163.754,VALID,0,VALID,23.8203,VALID,25,VALID,0.126953,